Location: Isles
(48.9125°N, 2.8272°E)
Time: 14:59:17
(UTC+00:00)

Cosmos 1943 Rocket - Pass Details

Date: 03 February 2023
Orbit: 811 x 844 km, 71.0° (Epoch: 29 March)

Event Time Altitude Azimuth Distance (km) Brightness Sun altitude
Rises 20:35:53 0° 333° (NNW) 3,414 5.9 -37.2°
Reaches altitude 10° 20:38:23 10° 336° (NNW) 2,475 5.0 -37.5°
Enters shadow 20:39:55 19° 341° (NNW) 1,918 4.3 -37.8°
